Location: Cutler
(25.6150°N, 80.3110°W)
Time: 07:39:58
(UTC-05:00)

N. Korean satellite - Visible Passes

Search period start: 24 November 2017 00:00
Search period end: 04 December 2017 00:00
Orbit: 460 x 514 km, 97.2° (Epoch: 23 November)

Date Brightness Start Highest point End Pass type
(mag) Time Alt. Az. Time Alt. Az. Time Alt. Az.
24 Nov 7.7 17:57:07 10° SE 17:59:55 23° ENE 18:02:46 10° NNE visible
24 Nov 10.0 19:32:13 10° WSW 19:33:22 11° W 19:34:31 10° WNW visible
25 Nov 8.9 19:06:51 10° SSW 19:09:47 25° W 19:12:45 10° NW visible
26 Nov 7.0 18:42:48 10° S 18:46:15 60° W 18:49:46 10° NNW visible
27 Nov 9.8 06:18:38 10° NE 06:21:29 20° E 06:24:18 10° SE visible
27 Nov 6.6 18:19:22 10° SSE 18:22:47 53° ENE 18:26:16 10° N visible
28 Nov 7.7 17:56:33 10° SE 17:59:23 23° ENE 18:02:16 10° NNE visible
28 Nov 10.0 19:31:34 10° WSW 19:32:50 12° W 19:34:06 10° WNW visible
29 Nov 8.9 19:06:16 10° SSW 19:09:13 25° W 19:12:15 10° NW visible
30 Nov 7.0 18:42:12 10° S 18:45:40 61° W 18:49:14 10° NNW visible
01 Dec 9.7 06:18:07 10° NE 06:20:55 20° E 06:23:43 10° SE visible
01 Dec 6.6 18:18:44 10° SSE 18:22:11 53° ENE 18:25:43 10° N visible
02 Dec 7.7 17:55:54 10° SE 17:58:46 23° ENE 18:01:41 10° NNE visible
02 Dec 10.0 19:30:49 10° WSW 19:32:13 12° W 19:33:37 10° WNW visible
03 Dec 8.8 19:05:35 10° SSW 19:08:35 26° W 19:11:40 10° NW visible
